SCD 1 1 22490U 93009B 25040.17315808 .00000916 00000-0 20101-3 0 9995 2 22490 24.9713 10.7954 0041969 321.5371 141.8760 14.45719423690082 TECHSAT 1B 1 25397U 98043D 25039.86195604 .00000256 00000-0 13098-3 0 9995 2 25397 98.9562 16.5547 0001389 150.0859 210.0398 14.24250240381104 SCD 2 1 25504U 98060A 25039.90970043 .00000673 00000-0 13789-3 0 9997 2 25504 24.9938 233.4571 0016737 312.2277 155.5158 14.45169594388889 LANDSAT 7 1 25682U 99020A 25039.97621453 .00000886 00000-0 18803-3 0 9994 2 25682 97.8716 61.4519 0001297 78.3807 338.6804 14.61355710373717 TUBSAT 1 25757U 99029B 25040.21011492 .00000338 00000-0 94998-4 0 9993 2 25757 98.6210 15.8507 0015211 52.7371 307.5208 14.52180489361798 QUIKSCAT 1 25789U 99034A 25039.91953251 .00000829 00000-0 20864-3 0 9992 2 25789 98.3404 281.4316 0096660 356.1673 3.8770 14.51125222340966 TERRA 1 25994U 99068A 25040.19754632 .00000859 00000-0 18649-3 0 9992 2 25994 98.0169 102.4215 0002166 16.3019 50.2997 14.60454275337759 MAROC TUBSAT 1 27004U 01056D 25039.92741520 .00000003 00000-0 55955-4 0 9990 2 27004 99.7595 203.4332 0019381 328.6149 149.2898 13.70232913158636 AQUA 1 27424U 02022A 25040.15038493 .00001942 00000-0 40739-3 0 9991 2 27424 98.3618 357.0485 0002294 82.1383 7.4081 14.60810653211299 IRS P6 1 28051U 03046A 25040.12570396 .00000455 00000-0 16734-3 0 9991 2 28051 98.2610 93.9957 0065037 21.5120 32.4170 14.35861032109794 TANSUO 1 1 28220U 04012A 25039.65365547 .00014060 00000-0 66629-3 0 9994 2 28220 97.9378 84.3828 0006859 309.5484 50.5142 15.19415600135809 ROCSAT 2 1 28254U 04018A 25040.17868237 -.00000130 00000-0 -58612-4 0 9999 2 28254 98.7738 19.8431 0000896 165.0809 205.9448 14.01136156 59759 AURA 1 28376U 04026A 25039.92757950 .00001988 00000-0 42495-3 0 9994 2 28376 98.2798 349.6968 0001714 78.4679 281.6714 14.59916838 94208 CARTOSAT-1 1 28649U 05017A 25040.12744162 .00002937 00000-0 31833-3 0 9992 2 28649 97.5853 79.7454 0000492 116.8671 243.2597 14.88930902 70462 SINAH 1 1 28893U 05043D 25039.95587931 .00000870 00000-0 17710-3 0 9992 2 28893 98.2177 168.5697 0015105 25.7666 334.4285 14.63468414 28361 EROS B 1 29079U 06014A 25039.93051914 .00038015 00000-0 13903-2 0 9994 2 29079 97.3375 153.7596 0004761 125.2006 234.9680 15.27954866 43487 RESURS DK-1 1 29228U 06021A 25040.07418432 .00004488 00000-0 28298-3 0 9998 2 29228 69.9340 173.0222 0005485 331.4854 28.6009 15.09851017 28072 KOMPSAT 2 1 29268U 06031A 25039.90816972 .00000737 00000-0 14863-3 0 9990 2 29268 97.8440 243.1306 0014157 193.3994 273.5444 14.64101344989278 LAPAN-TUBSAT 1 29709U 07001A 25040.20435826 .00001467 00000-0 17852-3 0 9990 2 29709 98.0984 24.6203 0012228 357.4046 2.7102 14.84982078977970 HAIYANG 1B 1 31113U 07010A 25039.96727515 .00000250 00000-0 11097-3 0 9996 2 31113 98.3078 37.3396 0012732 220.1472 139.8772 14.30821258930834 SKYMED 1 1 31598U 07023A 25040.09792595 .00001160 00000-0 15224-3 0 9990 2 31598 97.8890 225.8374 0001250 83.2313 276.9042 14.82158456956293 TERRA SAR X 1 31698U 07026A 25037.66469082 .00002771 00000-0 13513-3 0 9993 2 31698 97.4467 47.4491 0001859 85.9940 274.1507 15.19143543977996 WORLDVIEW 1 1 32060U 07041A 25039.91086604 .00012821 00000-0 52114-3 0 9996 2 32060 97.3871 161.8737 0004293 218.3979 141.6954 15.24673853967789 YAOGAN 3 1 32289U 07055A 25040.15955957 .00004202 00000-0 46619-3 0 9995 2 32289 97.8676 69.3634 0001158 100.3857 259.7489 14.87787490932530 SKYMED 2 1 32376U 07059A 25040.13166764 .00001097 00000-0 14434-3 0 9993 2 32376 97.8889 225.8630 0001391 80.8144 279.3226 14.82147068929043 RADARSAT 2 1 32382U 07061A 25040.16303681 .00000179 00000-0 86285-4 0 9991 2 32382 98.5805 49.1213 0001173 89.3081 270.8236 14.29982319895600 CARTOSAT 2A 1 32783U 08021A 25039.06321081 .00001424 00000-0 20103-3 0 9994 2 32783 97.8343 97.7944 0010475 279.4870 80.5158 14.78677920905869 JASON 2 1 33105U 08032A 25039.63419712 -.00000052 00000-0 39800-4 0 9999 2 33105 66.0422 8.6901 0008066 273.1385 260.0021 12.87681852780247 RAPIDEYE 2 1 33312U 08040A 25039.84885278 .00003401 00000-0 25858-3 0 9992 2 33312 97.4882 82.3272 0020592 101.9933 258.3602 15.02619143891815 RAPIDEYE 5 1 33313U 08040B 25040.04990797 .00003521 00000-0 28534-3 0 9997 2 33313 97.4642 75.2224 0014985 340.7003 19.3652 15.00232476891580 RAPIDEYE 1 1 33314U 08040C 25040.11690436 .00003263 00000-0 25879-3 0 9995 2 33314 97.4726 83.0010 0028459 66.0824 294.3377 15.00881938891722 RAPIDEYE 3 1 33315U 08040D 25039.83214896 .00003383 00000-0 24882-3 0 9991 2 33315 97.4468 84.1538 0009393 287.1563 72.8634 15.04014276892043 RAPIDEYE 4 1 33316U 08040E 25039.81814848 .00002856 00000-0 22488-3 0 9997 2 33316 97.4489 80.2059 0004364 260.3215 99.7517 15.01553294891673 HJ-1A 1 33320U 08041A 25040.11931865 .00002770 00000-0 35470-3 0 9997 2 33320 97.6373 41.8128 0018479 320.2754 39.7105 14.81969293885428 HJ-1B 1 33321U 08041B 25040.25417236 .00002199 00000-0 28224-3 0 9998 2 33321 97.6282 46.2883 0037498 2.8919 357.2504 14.81699766885463 GEOEYE 1 1 33331U 08042A 25039.92262730 .00001062 00000-0 20969-3 0 9995 2 33331 98.1250 115.1870 0004594 151.5801 208.5653 14.64449373877945 THEOS 1 33396U 08049A 25040.18767331 .00000116 00000-0 74793-4 0 9994 2 33396 98.6270 106.6150 0000980 103.4580 256.6706 14.20061417848014 SKYMED 3 1 33412U 08054A 25040.16156501 .00006812 00000-0 52391-3 0 9996 2 33412 97.8835 245.5136 0019023 129.4878 230.8032 15.01895988882803 YAOGAN 4 1 33446U 08061A 25040.09557940 .00002320 00000-0 30276-3 0 9993 2 33446 97.8973 333.9583 0013412 232.5025 127.4969 14.81432385872610 GOSAT (IBUKI) 1 33492U 09002A 25039.91158933 .00000240 00000-0 50746-4 0 9992 2 33492 98.0512 153.2519 0001386 103.9889 256.1470 14.67560197859115 YAOGAN 6 1 34839U 09021A 25039.90624579 .00068408 00000-0 53912-3 0 9999 2 34839 97.1949 15.3395 0011164 36.7664 323.4363 15.71155024880280 DEIMOS 1 1 35681U 09041A 25040.14640245 .00001402 00000-0 21914-3 0 9991 2 35681 97.6880 215.6672 0001641 35.3079 324.8239 14.74253127834216 DUBAISAT 1 1 35682U 09041B 25040.10170342 .00002535 00000-0 39890-3 0 9994 2 35682 97.9333 176.3882 0010220 208.9862 151.0780 14.73334353832501 OCEANSAT 2 1 35931U 09051A 25040.14452949 .00000340 00000-0 25833-3 0 9996 2 35931 98.2365 71.6463 0016429 181.9076 178.2030 13.99554505810362 WORLDVIEW 2 1 35946U 09055A 25039.94708573 .00000304 00000-0 11717-3 0 9995 2 35946 98.4835 115.3443 0003114 240.2801 119.8076 14.37099258804780 SMOS 1 36036U 09059A 25039.76634845 .00000803 00000-0 27011-3 0 9998 2 36036 98.4409 229.2702 0001209 83.3514 276.7812 14.39753573802453 YAOGAN 7 1 36110U 09069A 25040.23988197 .00001243 00000-0 18253-3 0 9995 2 36110 98.0743 282.4924 0024770 183.9279 176.1741 14.77114065816877 TANDEM X 1 36605U 10030A 25039.50900398 .00003020 00000-0 14691-3 0 9996 2 36605 97.4457 49.2693 0001868 94.0339 266.1109 15.19154776811698 CARTOSAT 2B 1 36795U 10035A 25040.11445773 .00001298 00000-0 18377-3 0 9991 2 36795 97.8281 98.2801 0012045 355.9563 4.1549 14.78686986787067 YAOGAN 10 1 36834U 10038A 25040.16864812 .00001417 00000-0 17740-3 0 9998 2 36834 97.9364 61.9600 0001292 89.0551 335.1462 14.83843079784132 SKYMED 4 1 37216U 10060A 25040.14435272 .00001099 00000-0 14466-3 0 9998 2 37216 97.8890 225.8847 0001465 85.3538 274.7843 14.82148837771596 HAIYANG 2A 1 37781U 11043A 25039.90283305 .00000022 00000-0 65195-4 0 9998 2 37781 99.3328 45.5770 0001188 126.9736 233.1524 13.78826147678707 RASAT 1 37791U 11044D 25040.16553390 .00001113 00000-0 20561-3 0 9993 2 37791 98.0691 134.0354 0020025 317.0303 102.7658 14.67265890720880 SRMSAT 1 37841U 11058D 25040.00381123 .00000604 00000-0 18443-3 0 9990 2 37841 19.9708 164.1680 0011648 178.1516 339.1609 14.11357049688271 YAOGAN 13 1 37941U 11072A 25040.15296010 .00467187 97639-4 88171-3 0 9999 2 37941 97.7142 51.3285 0004403 141.5066 218.6527 16.00806460733469 PLEIADES 1 1 38012U 11076F 25040.15339870 .00000734 00000-0 16763-3 0 9996 2 38012 98.1794 117.3087 0000990 105.2170 310.0108 14.58589201700132 ZY 1 1 38038U 11079A 25040.19575175 .00000802 00000-0 28211-3 0 9998 2 38038 98.4688 111.3343 0006112 351.0815 30.1008 14.37533476688418 ZY 3 1 38046U 12001A 25040.13024225 .00023195 00000-0 46415-3 0 9998 2 38046 97.2111 104.8350 0004264 31.4666 328.6838 15.46760915727375 RISAT 1 1 38248U 12017A 25039.64936445 .00022583 00000-0 66779-3 0 9994 2 38248 97.5062 65.4542 0003934 109.7456 250.4211 15.34925437705711 KOMPSAT 3 1 38338U 12025B 25040.17423915 .00001185 00000-0 24498-3 0 9993 2 38338 98.2911 353.1556 0006441 198.0214 162.0759 14.62189727679408 EXACTVIEW-1 1 38709U 12039C 25039.86694845 .00000299 00000-0 14817-3 0 9995 2 38709 98.9471 142.2062 0011475 149.4980 210.6868 14.24727803652458 SPOT 6 1 38755U 12047A 25039.06182358 .00000773 00000-0 17616-3 0 9995 2 38755 98.1934 108.8525 0001036 87.3247 272.8071 14.58557296661051 PLEIADES 1B 1 39019U 12068A 25040.17683618 .00000741 00000-0 16930-3 0 9994 2 39019 98.2078 117.1512 0001135 97.7231 262.4097 14.58523749648988 GOKTURK 2 1 39030U 12073A 25040.16321008 .00001100 00000-0 17164-3 0 9994 2 39030 97.7245 256.4046 0001853 101.4424 258.6994 14.74725665651856 LANDSAT 8 1 39084U 13008A 25040.18411804 .00000731 00000-0 17230-3 0 9991 2 39084 98.2013 112.5902 0001287 89.6523 270.4823 14.57122719637922 SARAL 1 39086U 13009A 25040.13806815 .00000278 00000-0 11854-3 0 9991 2 39086 98.5509 228.0527 0001183 336.3424 23.7705 14.32653091625009 GAOFEN 1 1 39150U 13018A 25040.18571285 .00001330 00000-0 19755-3 0 9996 2 39150 97.9632 115.6963 0019498 58.8133 301.4985 14.76551608635531 VNREDSAT 1 1 39160U 13021B 25040.13457723 .00001169 00000-0 22888-3 0 9997 2 39160 97.9670 105.7190 0001092 98.6177 261.5150 14.64588162628126 KOMPSAT 5 1 39227U 13042A 25040.13949563 .00003957 00000-0 28678-3 0 9992 2 39227 97.6170 228.7212 0003039 36.2630 323.8802 15.04518245629787 SKYSAT 1 1 39418U 13066C 25040.09623486 .00005314 00000-0 34148-3 0 9996 2 39418 97.4549 99.3906 0022704 211.2145 148.7737 15.08631116614024 DUBAISAT 2 1 39419U 13066D 25040.13122664 .00006663 00000-0 47799-3 0 9998 2 39419 97.4308 41.0765 0010419 284.8754 75.1318 15.04612524612100 GPM 1 39574U 14009C 25039.89152781 .00021934 00000-0 47937-3 0 9994 2 39574 64.9789 160.4729 0009434 247.0942 112.9203 15.44145794621618 SENTINEL 1A 1 39634U 14016A 25040.13336605 .00000212 00000-0 54704-4 0 9994 2 39634 98.1818 49.7997 0001313 90.4298 269.7052 14.59199706578144 KAZEOSAT 1 1 39731U 14024A 25039.06075469 .00000449 00000-0 14989-3 0 9991 2 39731 98.3717 117.3722 0001126 83.7012 276.4306 14.42036234567391 ALOS 2 1 39766U 14029A 25040.23098051 .00003329 00000-0 45239-3 0 9999 2 39766 97.9218 139.4792 0001469 99.6884 260.4493 14.79474952578727 KAZEOSAT 2 1 40010U 14033A 25039.03938193 .00001293 00000-0 16086-3 0 9990 2 40010 97.5896 258.7476 0009989 142.8799 217.3109 14.84104914575630 HODOYOSHI 4 1 40011U 14033B 25040.12793599 .00002735 00000-0 31641-3 0 9998 2 40011 97.5603 244.1057 0025310 135.7056 224.6191 14.86075330575536 DEIMOS 2 1 40013U 14033D 25040.18610444 .00002996 00000-0 30699-3 0 9994 2 40013 97.6526 285.6727 0001818 107.0341 253.1077 14.91202402577050 HODOYOSHI 3 1 40015U 14033F 25040.04977496 .00003551 00000-0 43635-3 0 9996 2 40015 97.5994 219.9323 0034075 175.7904 184.3603 14.83227014574481 SPOT 7 1 40053U 14034A 25040.15406715 .00000965 00000-0 20989-3 0 9995 2 40053 98.1285 108.7082 0001108 80.9653 279.1672 14.60185518565182 SKYSAT 2 1 40072U 14037D 25039.83010299 .00002473 00000-0 29073-3 0 9999 2 40072 98.3364 328.3026 0007391 79.5880 280.6166 14.85857457572646 WORLDVIEW 3 1 40115U 14048A 25039.94893316 .00002018 00000-0 24237-3 0 9992 2 40115 97.8519 116.0202 0006733 151.7946 208.3635 14.85079332568701 YAOGAN 21 1 40143U 14053A 25040.12076465 .00011632 00000-0 47845-3 0 9991 2 40143 97.2201 95.8540 0014953 49.2501 311.0033 15.24197679579899 YAOGAN 22 1 40275U 14063A 25039.91370866 -.00000023 00000-0 60719-4 0 9994 2 40275 100.6923 179.6898 0006158 216.7918 143.2772 13.15502811494957 ASNARO 1 40298U 14070A 25040.20861576 .00014677 00000-0 69057-3 0 9996 2 40298 97.3900 123.1433 0004798 126.6164 233.5513 15.19646437569169 HODOYOSHI 1 1 40299U 14070B 25040.12695186 .00222745 19841-4 76737-3 0 9997 2 40299 97.0939 107.8557 0003903 235.0411 125.0496 15.89568279572121 CHUBUSAT 1 1 40300U 14070C 25012.69875439 .14599716 24063-5 11754-3 0 9993 2 40300 97.0264 61.4205 0009153 258.8077 101.2201 16.52307711567468 CBERS-4 1 40336U 14079A 25040.17696756 .00000256 00000-0 10387-3 0 9990 2 40336 98.3706 107.9616 0001228 56.5155 303.6148 14.35505812533247 RESURS P2 1 40360U 14087A 25040.21740363 .01740949 23026-5 43254-3 0 9993 2 40360 97.1049 140.1962 0004799 269.8251 174.8984 16.29172597568425 YAOGAN 26 1 40362U 14088A 25040.18327033 .00017035 00000-0 62424-3 0 9991 2 40362 97.0709 54.2064 0007652 46.9809 313.2071 15.28036054563416 SMAP 1 40376U 15003A 25039.95133791 .00001144 00000-0 23061-3 0 9991 2 40376 98.1300 48.9908 0001621 82.7882 277.3504 14.63347681535482 KOMPSAT 3A 1 40536U 15014A 25039.92146217 .00017505 00000-0 57462-3 0 9995 2 40536 97.6418 1.0791 0003292 143.0737 217.0731 15.31653177545806 SENTINEL 2A 1 40697U 15028A 25040.15694821 .00000273 00000-0 11802-3 0 9996 2 40697 98.5642 117.0280 0001420 137.3711 222.7583 14.31950085503228 CARBONITE 1 1 40718U 15032D 25040.15832022 .00003454 00000-0 45254-3 0 9994 2 40718 97.6451 235.0295 0016137 108.6733 251.6233 14.80876314516305 YAOGAN 27 1 40878U 15040A 25040.10459906 .00000030 00000-0 18965-3 0 9997 2 40878 100.0849 43.8022 0007629 272.9654 87.0586 13.16040915454309 LAPAN A2 1 40931U 15052B 25038.81889873 .00001817 00000-0 15548-3 0 9993 2 40931 6.0001 108.1159 0012838 187.7041 172.2889 14.78568669506492 YAOGAN 28 1 41026U 15064A 25040.20541138 .00012678 00000-0 52477-3 0 9996 2 41026 97.2358 187.8137 0011861 113.6166 246.6318 15.24002875515572 YAOGAN 29 1 41038U 15069A 25040.15669157 .00000957 00000-0 12626-3 0 9999 2 41038 98.0452 61.9181 0001947 141.8471 218.2880 14.82387013497566 KENT RIDGE 1 1 41167U 15077B 25039.17215500 .00006415 00000-0 26688-3 0 9998 2 41167 14.9815 328.0529 0009085 130.6138 229.4975 15.18540170505901 TELEOS 1 1 41169U 15077D 25039.99059143 .00065920 00000-0 94109-3 0 9998 2 41169 14.9764 163.8435 0005087 81.2477 278.8425 15.54349715507432 JASON 3 1 41240U 16002A 25039.88063335 -.00000047 00000-0 59463-4 0 9998 2 41240 66.0409 79.9477 0008093 271.7119 88.2969 12.80930040423816 SENTINEL 3A 1 41335U 16011A 25040.13328922 .00000225 00000-0 11117-3 0 9999 2 41335 98.6253 109.5323 0001127 106.8189 253.3115 14.26731303467757 SENTINEL 1B 1 41456U 16025A 25039.92175899 .00005919 00000-0 54604-3 0 9999 2 41456 98.1621 75.9707 0016403 332.4689 27.5660 14.94960346469969 ZY 3 2 1 41556U 16033A 25040.14434226 .00011081 00000-0 49360-3 0 9997 2 41556 97.4319 118.8737 0010383 225.2719 134.7672 15.21565950483020 CARTOSAT 2C 1 41599U 16040A 25040.20119233 .00006633 00000-0 31762-3 0 9991 2 41599 97.4419 102.3123 0013283 44.7916 315.4389 15.19201012478862 SKYSAT C1 1 41601U 16040C 25039.86711365 .00012867 00000-0 43482-3 0 9997 2 41601 97.0277 94.2288 0002771 264.4655 95.6271 15.30765648482344 LAPAN A3 1 41603U 16040E 25040.16620964 .00005368 00000-0 19619-3 0 9991 2 41603 97.1393 49.5946 0010725 349.3268 10.7743 15.28438846479387 BIROS 1 41604U 16040F 25039.82341701 .00035819 00000-0 58648-3 0 9991 2 41604 97.1016 69.2569 0004349 259.4311 100.6453 15.52403280480701 SKYSAT C4 1 41771U 16058B 25039.68034297 .00016571 00000-0 50031-3 0 9990 2 41771 96.9744 81.0758 0004802 75.4398 284.7378 15.34315541469493 SKYSAT C5 1 41772U 16058C 25040.08579335 .00017333 00000-0 47629-3 0 9990 2 41772 97.1221 94.6782 0012386 127.8033 232.4335 15.37199960468083 SKYSAT C2 1 41773U 16058D 25039.84786928 .00012803 00000-0 43776-3 0 9997 2 41773 96.9804 78.8751 0001429 100.6216 259.5187 15.30385317469336 SKYSAT C3 1 41774U 16058E 25039.87880419 .00015765 00000-0 45071-3 0 9991 2 41774 96.9745 89.3660 0006144 139.3044 220.8661 15.36037836470060 ALSAT 1B 1 41785U 16059C 25040.13602098 .00000860 00000-0 14580-3 0 9991 2 41785 97.7997 64.8859 0009804 19.2776 340.8801 14.71604970448041 PATHFINDER 1 1 41787U 16059E 25039.91786184 .00001624 00000-0 29940-3 0 9991 2 41787 97.8193 56.9630 0028499 341.0116 19.0023 14.66538339447382 GOKTURK-1A 1 41875U 16073A 25040.12240760 .00000942 00000-0 19406-3 0 9993 2 41875 98.1284 297.1027 0001348 81.3803 278.7552 14.62715114436748 RESOURCESAT 2A 1 41877U 16074A 25039.90625288 .00000273 00000-0 14401-3 0 9999 2 41877 98.6197 114.2771 0001736 59.1388 300.9960 14.21663221424211 CARTOSAT 2D 1 41948U 17008A 25039.04652015 .00008022 00000-0 38400-3 0 9994 2 41948 97.4812 100.3884 0004012 165.3027 194.8325 15.19221290442558 SENTINEL 2B 1 42063U 17013A 25040.20054618 .00000230 00000-0 10441-3 0 9992 2 42063 98.5687 117.0664 0000999 94.0233 266.1064 14.30810191414151 ZHUHAI-1 02 1 42759U 17034B 25040.16291104 .00045199 00000-0 87425-3 0 9994 2 42759 43.0125 310.7109 0016202 176.1561 183.9425 15.46885854423851 NUSAT-3 1 42760U 17034C 25040.15739374 .00068562 00000-0 98472-3 0 9994 2 42760 43.0030 285.9254 0020951 204.2075 155.7803 15.54958822424157 ZHUHAI-1 01 1 42761U 17034D 25040.12987053 .00045989 00000-0 87536-3 0 9998 2 42761 43.0164 308.8726 0017582 182.3650 177.7128 15.47316246423867 CARTOSAT 2E 1 42767U 17036C 25040.11665113 .00007443 00000-0 35650-3 0 9998 2 42767 97.4060 101.4234 0002421 257.3695 102.7269 15.19224524423286